sat.trackr.live / text

‹ back to catalog

STARLINK-30437

NORAD 58036 · 2023-156J

PAYLOAD ACTIVE UNKNOWN

§ Identity

Operator
Country
US
Launch date
2023-10-09
Launch site
AFWTR
Launch vehicle
Mass (kg)
RCS (m²)

Purposes: comms

External: N2YO · Heavens-Above · Gunter

§ Orbital elements

Epoch: 2026-05-25T04:58:54.479136Z

Period
94.11 min
Inclination
53.1610°
Eccentricity
0.0001260
Mean motion
15.30188219 rev/d
Perigee alt
474.4 km
Apogee alt
476.1 km
Semi-major
6,853.4 km
B*
8.9811e-6
RAAN
82.7766°
Arg perigee
97.7190°
Mean anomaly
262.3954°
Rev number
14,798

§ Raw data

STARLINK-304371 58036U 23156J   26145.20757499 -.00000093  00000+0  89811-5 0  99942 58036  53.1610  82.7766 0001260  97.7190 262.3954 15.30188219147986

JSON: /api/v1/satellites/58036 · /tle

For live sub-satellite position, see the globe view (requires WebGL).

§ Visibility from observer

Set your observer location to see the next 7 days of passes ≥ 10°. The values pass through the URL so the page stays shareable.

No JS? Fill the form by hand. The geolocation button needs JavaScript.